Temp
61 61 61 61 61 61 61 61 61 61 62 62 62 62 62 62 62 64 69 77 79 71 73 78 77 77 76 71 74 69 55 50 55 57 59 61 61 66 70 68 67 67 66 67 68
60 60 60 60 61 60 60 60 61 61 61 62 62 62 61 61 62 69 77 76 74 73 80 79 74 75 68 68 69 63 53 56 63 62 61 63 65 68 66 64 63 64 67 68 66
59 59 60 60 60 59 59 60 60 61 61 61 61 61 61 60 64 76 79 78 74 74 82 80 77 74 63 65 66 63 59 65 66 66 66 65 66 69 63 58 63 62 64 65 62
59 59 59 59 59 59 59 59 60 61 61 61 61 61 61 62 59 76 76 76 76 78 79 77 74 66 61 63 67 61 69 68 70 68 67 65 69 65 64 64 69 67 65 63 60
58 59 59 58 59 59 58 59 59 60 60 60 60 60 59 61 66 79 77 75 77 78 78 76 73 70 63 66 68 61 66 70 71 68 67 69 65 65 63 67 68 67 65 60 58
58 58 58 58 58 58 58 58 58 58 59 60 60 60 58 58 80 82 80 80 80 78 78 78 75 76 70 70 65 70 68 69 67 67 67 65 63 65 64 68 66 65 61 60 60
57 57 57 58 58 58 58 58 57 58 59 61 61 61 60 67 79 79 78 77 82 82 78 79 79 76 73 66 72 70 63 66 64 65 65 67 61 62 66 67 64 62 61 60 60
57 57 57 57 57 58 58 57 57 59 60 61 62 59 58 76 81 77 77 79 83 85 84 82 83 76 73 72 69 64 60 53 63 66 66 66 55 64 65 64 61 61 61 60 59
57 56 56 57 57 57 57 56 58 60 62 62 56 57 59 76 74 80 81 78 80 80 82 89 81 74 72 63 58 58 52 55 60 67 64 61 57 63 64 64 60 59 58 59 58
57 56 56 56 57 56 55 56 59 59 62 66 70 58 66 70 78 81 79 81 77 76 74 74 68 64 61 58 49 52 53 56 57 62 62 58 59 62 62 62 59 58 57 57 57
58 57 56 56 56 55 52 52 58 58 59 61 63 64 71 77 81 79 80 77 74 70 63 65 59 54 60 62 63 61 57 56 59 65 61 59 58 61 61 59 57 56 55 55 56
57 57 56 56 56 55 48 51 59 58 51 67 68 69 76 76 68 76 81 71 67 60 63 58 53 63 66 64 61 58 55 54 59 63 60 58 58 59 60 61 57 56 55 55 55
56 56 56 56 55 49 48 58 61 59 51 62 68 68 70 73 67 69 77 71 65 61 60 58 63 67 64 60 58 57 54 55 56 60 59 54 52 54 59 60 59 58 57 56 56
56 55 55 55 50 45 52 57 57 57 46 54 61 68 72 74 66 78 79 73 66 63 61 61 66 65 61 59 60 52 62 61 59 53 46 56 40 50 54 57 57 57 54 55 56
56 56 55 55 43 43 52 54 58 57 31 60 63 76 72 67 69 72 80 70 64 64 62 61 61 60 59 61 63 59 65 60 57 51 46 48 40 49 51 51 52 55 56 54 56
55 56 55 49 43 46 52 53 54 44 32 55 66 63 62 66 68 71 72 74 73 64 62 65 68 65 65 67 65 68 57 55 49 45 37 48 45 44 49 54 54 56 58 57 56
56 56 53 53 43 49 52 50 42 34 56 54 59 62 63 60 64 66 64 59 59 52 52 59 61 65 68 60 61 57 49 39 35 35 35 50 45 48 57 59 59 58 57 57 57
55 54 52 52 48 49 45 44 33 48 51 62 60 60 58 61 61 63 62 58 60 59 52 50 49 61 66 62 58 54 53 40 34 33 44 50 43 52 60 63 63 63 61 58 55
52 49 48 49 52 48 39 36 43 49 59 58 58 54 52 60 60 61 59 60 61 61 56 50 52 64 67 67 64 55 49 55 46 43 40 44 50 57 57 59 58 56 57 56 56
49 45 44 51 52 44 35 43 48 58 61 62 51 55 49 54 56 57 57 65 62 63 63 56 48 60 67 65 64 60 61 48 42 34 33 41 45 46 54 56 54 54 54 56 55
46 40 47 54 51 37 32 43 52 60 62 58 56 52 53 54 57 56 57 65 67 65 63 57 52 51 59 55 56 54 50 48 47 43 36 31 40 54 55 54 55 57 58 57 57
44 35 48 53 34 34 37 47 55 58 59 58 56 57 53 55 53 53 57 62 71 68 57 59 51 47 52 56 59 58 54 50 43 40 43 41 41 56 56 60 57 57 60 60 60
39 42 49 51 31 32 43 46 52 53 56 53 52 56 56 53 47 53 57 65 66 66 59 58 48 43 45 50 54 52 54 51 48 45 42 40 43 58 58 59 61 58 60 61 59
39 33 40 45 43 40 39 41 44 53 51 52 50 53 50 49 51 50 54 62 64 64 64 63 50 52 47 52 52 49 53 54 51 41 45 46 51 55 58 58 61 58 58 60 61
40 34 38 33 37 39 38 40 42 41 51 51 47 49 47 42 46 47 52 58 64 63 60 58 52 54 59 62 58 55 54 54 51 52 50 54 50 57 61 57 63 59 58 60 59
34 36 40 37 41 38 39 36 40 45 45 46 45 49 47 43 46 43 50 50 53 57 53 52 48 50 48 57 58 56 57 57 56 54 52 53 52 61 61 61 60 62 61 61 61
41 43 41 36 36 35 37 39 42 44 47 49 46 46 46 51 54 55 56 56 55 53 50 52 47 44 41 51 50 44 53 54 54 56 56 49 59 61 61 60 62 65 63 63 64
MSLP
1018.49 1018.16 1017.78 1017.58 1017.57 1017.18 1016.55 1016.08 1015.56 1014.96 1014.68 1014.13 1013.59 1013.70 1013.14 1012.68 1011.92 1012.03 1010.38 1008.62 1008.84 1008.69 1008.88 1009.37 1009.66 1010.04 1010.55 1010.96 1010.75 1011.31 1012.21 1012.74 1012.35 1011.98 1011.17 1011.02 1011.30 1011.31 1011.29 1011.81 1012.27 1012.76 1013.16 1013.39 1013.90
1018.36 1018.21 1017.53 1017.31 1017.14 1016.84 1016.34 1015.55 1015.22 1014.82 1014.63 1014.11 1013.55 1013.44 1013.13 1012.66 1012.21 1010.46 1008.02 1008.03 1008.31 1008.44 1009.10 1009.15 1009.48 1010.01 1010.60 1010.60 1010.60 1011.21 1011.93 1011.64 1010.80 1010.85 1010.52 1010.36 1010.74 1011.18 1011.73 1012.30 1013.05 1013.37 1013.62 1013.81 1014.35
1018.38 1018.08 1017.81 1017.40 1017.06 1016.71 1016.05 1015.60 1015.19 1014.42 1014.05 1013.84 1013.82 1013.32 1013.32 1012.76 1011.83 1007.69 1006.61 1006.95 1007.55 1008.06 1008.40 1008.96 1009.34 1009.64 1010.06 1010.27 1010.22 1010.49 1010.81 1010.30 1010.05 1010.09 1010.24 1010.58 1010.89 1011.01 1011.80 1012.70 1012.65 1013.13 1013.73 1014.28 1014.64
1018.31 1018.01 1017.49 1017.26 1016.86 1016.58 1016.14 1015.33 1014.49 1014.22 1014.03 1014.02 1013.54 1013.15 1013.33 1012.97 1010.81 1006.67 1006.60 1006.31 1006.78 1008.01 1008.74 1008.97 1009.28 1009.71 1009.85 1010.05 1009.92 1010.21 1009.42 1009.47 1009.42 1009.55 1010.02 1010.45 1010.52 1011.07 1011.36 1011.55 1011.74 1012.61 1013.40 1014.19 1014.73
1018.38 1018.06 1017.52 1017.25 1016.94 1016.38 1015.64 1014.69 1014.30 1014.09 1013.92 1013.58 1013.28 1013.08 1013.41 1012.13 1009.20 1006.48 1006.55 1006.52 1007.16 1007.93 1008.31 1008.80 1008.89 1009.21 1009.46 1009.41 1009.59 1009.63 1009.19 1008.99 1009.06 1009.25 1009.53 1009.97 1010.56 1011.11 1011.41 1011.44 1011.91 1012.65 1013.51 1014.23 1014.69
1018.11 1017.50 1017.40 1017.21 1016.52 1015.76 1015.10 1014.48 1013.98 1013.59 1013.40 1013.10 1013.21 1013.66 1013.14 1011.08 1007.28 1006.34 1006.40 1006.78 1007.19 1007.51 1007.91 1008.31 1008.11 1008.31 1008.50 1008.99 1009.43 1009.00 1009.09 1008.93 1009.00 1009.20 1009.54 1010.01 1010.68 1010.90 1011.66 1011.77 1012.45 1012.89 1013.65 1014.03 1014.39
1017.71 1017.19 1017.05 1016.56 1015.97 1015.49 1015.03 1014.38 1013.67 1013.11 1012.95 1012.70 1013.08 1013.37 1012.13 1008.22 1006.83 1006.27 1006.38 1006.32 1006.25 1006.66 1007.28 1007.35 1007.60 1008.18 1007.97 1008.63 1008.59 1008.96 1009.46 1009.72 1009.54 1009.42 1009.50 1009.84 1010.85 1010.87 1011.08 1011.89 1012.63 1013.28 1013.76 1013.94 1014.28
1017.75 1017.44 1016.97 1016.64 1016.02 1015.27 1014.63 1013.92 1013.35 1012.81 1012.21 1012.39 1012.67 1012.79 1010.69 1007.00 1006.33 1006.52 1006.49 1006.30 1005.91 1006.41 1006.78 1006.68 1007.15 1007.77 1007.89 1008.31 1009.07 1009.52 1009.86 1010.08 1009.42 1009.50 1009.55 1009.90 1010.21 1010.37 1011.00 1011.80 1012.75 1013.43 1013.82 1013.93 1014.19
1017.43 1017.14 1016.64 1016.40 1015.86 1015.13 1014.38 1013.24 1012.46 1011.95 1011.62 1012.08 1012.28 1011.69 1009.36 1006.20 1006.14 1005.28 1005.84 1006.05 1005.81 1006.12 1006.52 1006.73 1006.88 1007.60 1007.85 1008.93 1009.86 1010.33 1010.39 1010.21 1009.71 1009.45 1009.81 1010.27 1010.39 1010.24 1010.82 1011.69 1012.58 1013.28 1013.82 1014.24 1014.33
1016.76 1016.58 1016.36 1015.98 1015.64 1015.18 1014.10 1012.49 1011.82 1012.12 1011.75 1011.75 1011.14 1011.17 1007.96 1005.80 1004.92 1004.66 1005.14 1005.52 1005.80 1006.20 1007.06 1007.23 1007.54 1008.13 1008.91 1009.55 1010.14 1010.53 1010.53 1010.21 1009.86 1009.65 1009.81 1010.27 1010.21 1010.33 1011.02 1011.62 1012.32 1013.39 1013.98 1014.35 1014.39
1016.33 1016.15 1016.08 1015.85 1015.61 1015.22 1014.30 1013.14 1012.52 1012.04 1011.23 1009.63 1008.91 1007.78 1006.05 1005.14 1004.32 1004.56 1004.52 1005.38 1006.19 1006.50 1007.15 1007.53 1008.39 1008.67 1009.09 1009.37 1009.65 1010.02 1010.29 1010.31 1009.81 1009.44 1009.96 1009.91 1010.15 1010.37 1011.04 1011.93 1012.51 1013.32 1014.12 1014.34 1014.55
1016.09 1016.05 1016.00 1015.87 1015.57 1015.20 1015.37 1014.68 1013.15 1013.37 1011.51 1008.77 1007.97 1007.33 1005.88 1005.91 1005.88 1004.32 1004.26 1005.65 1006.35 1006.95 1007.27 1008.05 1008.14 1008.43 1008.62 1008.98 1009.37 1009.86 1010.14 1010.09 1009.49 1009.29 1010.08 1009.77 1010.07 1010.40 1011.04 1011.30 1012.09 1013.05 1013.99 1014.18 1014.53
1015.95 1015.94 1015.82 1015.56 1015.04 1014.83 1014.53 1013.35 1012.71 1012.40 1011.45 1007.83 1006.67 1005.79 1005.05 1005.47 1005.28 1004.35 1004.30 1004.88 1005.85 1006.82 1007.37 1008.07 1007.71 1008.14 1008.58 1008.84 1009.32 1009.51 1009.88 1009.92 1009.89 1009.53 1009.78 1010.12 1010.46 1010.58 1010.71 1011.11 1011.81 1012.67 1013.30 1014.00 1014.27
1015.61 1015.78 1015.86 1015.55 1015.27 1015.34 1014.06 1013.39 1012.79 1012.74 1011.19 1007.25 1005.42 1003.53 1003.91 1004.26 1004.29 1003.46 1003.69 1004.45 1005.42 1005.97 1007.30 1007.63 1007.40 1007.75 1008.23 1008.64 1009.03 1009.40 1009.09 1009.47 1009.78 1010.33 1010.55 1010.21 1010.81 1010.79 1010.79 1011.03 1011.62 1012.22 1013.00 1013.63 1014.20
1015.10 1015.23 1015.36 1015.61 1015.65 1015.28 1014.14 1013.26 1012.66 1012.53 1010.39 1005.30 1003.25 1001.56 1001.90 1002.90 1002.78 1002.62 1002.84 1003.75 1004.62 1005.52 1006.58 1006.53 1006.81 1007.27 1007.70 1007.93 1008.28 1008.64 1008.33 1009.20 1009.78 1010.53 1010.93 1011.01 1011.39 1010.66 1011.02 1011.44 1011.48 1011.59 1012.30 1013.11 1013.80
1014.63 1014.93 1015.19 1015.42 1015.79 1014.98 1014.23 1013.43 1012.89 1012.34 1007.77 1004.20 1002.09 1001.41 1002.18 1002.13 1002.22 1002.40 1002.63 1003.11 1003.64 1004.97 1005.43 1005.65 1005.69 1006.34 1006.67 1006.96 1007.65 1007.87 1008.82 1009.66 1010.74 1011.42 1011.87 1011.15 1011.38 1011.01 1010.49 1009.70 1010.08 1011.04 1011.70 1012.57 1013.56
1014.01 1014.48 1014.96 1015.02 1015.00 1014.71 1014.44 1013.69 1012.90 1009.02 1005.40 1003.39 1001.85 1001.36 1001.34 1001.74 1002.16 1002.36 1002.68 1003.26 1003.83 1004.98 1005.42 1005.69 1005.55 1005.56 1005.90 1006.81 1007.24 1008.16 1009.40 1010.60 1011.64 1012.16 1011.75 1010.80 1010.97 1009.85 1008.60 1008.26 1008.30 1009.27 1010.68 1011.91 1012.99
1013.30 1013.84 1014.09 1014.41 1014.70 1014.97 1015.00 1013.83 1010.44 1005.07 1004.00 1001.92 1001.43 1001.24 1001.38 1001.48 1001.75 1002.22 1002.82 1003.47 1003.65 1004.18 1005.19 1005.65 1005.54 1005.22 1005.39 1005.99 1006.68 1007.76 1008.76 1010.34 1011.20 1012.06 1011.45 1010.78 1010.06 1008.46 1007.59 1007.20 1007.37 1008.35 1009.45 1011.38 1012.78
1012.85 1013.33 1013.72 1013.62 1014.31 1015.26 1015.32 1012.15 1005.25 1003.42 1002.22 1001.93 1001.35 1001.46 1001.66 1001.42 1001.42 1002.08 1002.26 1002.53 1002.92 1003.49 1004.28 1005.01 1004.53 1004.41 1004.63 1005.07 1006.00 1007.06 1008.25 1008.31 1010.15 1011.41 1011.51 1010.65 1009.41 1007.93 1007.56 1007.44 1007.92 1009.18 1010.16 1011.30 1012.39
1012.03 1012.19 1012.42 1012.58 1013.53 1014.59 1014.14 1007.45 1004.39 1002.28 1001.45 1001.64 1001.19 1001.07 1001.34 1001.21 1001.62 1001.62 1001.68 1000.98 1001.84 1002.33 1002.85 1004.08 1004.72 1004.52 1004.28 1004.72 1005.21 1005.81 1006.83 1008.62 1010.15 1011.30 1011.67 1010.71 1009.69 1008.28 1007.81 1008.14 1009.02 1009.48 1010.34 1011.27 1012.15
1011.33 1011.21 1010.29 1011.17 1012.90 1013.46 1010.43 1004.95 1003.95 1002.22 1001.41 1001.54 1001.01 1001.35 1001.18 1001.08 1000.94 1000.88 1000.37 1000.50 1000.80 1001.66 1002.54 1003.60 1004.43 1004.89 1004.61 1004.70 1005.23 1005.99 1006.82 1008.37 1009.31 1010.43 1010.76 1010.81 1009.44 1007.44 1007.31 1007.91 1008.17 1008.22 1009.20 1010.36 1011.31
1009.82 1009.60 1009.20 1010.10 1011.51 1010.76 1007.56 1004.26 1003.47 1002.88 1001.94 1001.44 1001.26 1001.27 1001.31 1001.10 1000.93 1000.72 1000.08 999.58 999.66 1000.55 1002.20 1003.03 1003.82 1004.93 1004.75 1004.49 1004.60 1004.97 1005.94 1007.17 1008.97 1010.21 1010.32 1010.11 1008.32 1007.10 1007.02 1006.80 1007.87 1008.21 1008.58 1009.70 1010.61
1008.81 1008.50 1009.11 1008.23 1009.06 1008.40 1006.04 1005.18 1004.54 1003.38 1002.36 1002.36 1001.93 1001.49 1001.23 1001.47 1001.67 1000.88 1000.15 999.61 999.81 1000.47 1001.13 1002.51 1003.64 1004.90 1005.01 1005.20 1005.12 1005.37 1005.90 1006.63 1007.66 1008.81 1009.51 1009.43 1007.38 1006.22 1006.63 1006.91 1007.07 1007.90 1008.45 1009.38 1010.32
1008.82 1008.09 1008.41 1008.21 1006.97 1006.97 1006.34 1005.50 1004.66 1003.77 1003.68 1003.44 1002.82 1002.36 1002.32 1002.14 1001.71 1001.33 1000.71 1000.09 1000.12 1000.38 1000.75 1001.59 1002.32 1002.66 1002.95 1003.94 1004.71 1005.33 1005.52 1005.93 1006.56 1008.19 1008.48 1007.98 1007.19 1006.48 1006.32 1007.06 1007.14 1007.67 1008.26 1008.94 1009.80
1007.93 1007.18 1006.54 1006.47 1006.82 1006.27 1006.23 1005.46 1005.09 1004.45 1003.91 1003.52 1003.19 1003.21 1003.33 1003.35 1002.66 1001.98 1001.78 1001.06 1000.08 1000.17 1000.60 1001.41 1001.75 1002.32 1002.43 1002.80 1003.40 1003.88 1004.39 1005.17 1005.63 1006.26 1006.77 1006.43 1006.71 1006.24 1005.96 1006.94 1007.13 1008.07 1007.95 1008.84 1009.31
1007.20 1007.55 1006.32 1005.79 1006.12 1006.37 1006.20 1005.48 1005.01 1004.80 1004.24 1003.97 1003.90 1003.65 1004.00 1003.39 1002.93 1002.83 1002.68 1001.92 1001.17 1000.89 1001.27 1001.43 1001.69 1002.32 1002.72 1002.82 1003.15 1003.34 1003.54 1003.87 1004.46 1005.14 1005.73 1005.82 1005.46 1005.27 1005.60 1005.86 1006.43 1006.77 1007.26 1007.56 1008.30
1007.26 1007.17 1006.76 1006.23 1005.51 1006.02 1005.60 1005.44 1005.33 1005.11 1004.77 1004.55 1004.42 1004.43 1003.55 1003.01 1003.16 1002.90 1002.52 1002.19 1002.04 1002.09 1002.36 1002.67 1002.72 1003.19 1003.65 1003.47 1003.69 1003.75 1002.55 1003.34 1003.95 1004.10 1004.52 1005.20 1004.74 1004.94 1005.00 1005.48 1005.37 1005.56 1006.19 1005.66 1006.44
Wind_Speed
15 15 14 13 12 14 15 15 16 15 15 16 15 16 15 13 14 2 9 11 9 10 2 5 3 5 4 4 5 4 3 3 6 9 6 4 5 3 2 6 3 2 4 6 7
15 16 16 16 16 16 16 16 17 15 14 14 15 16 15 12 2 11 8 10 9 12 5 6 5 5 2 3 3 5 4 7 6 4 7 7 6 8 5 4 3 5 4 5 5
15 15 16 16 17 17 18 17 17 16 16 16 15 15 14 9 4 14 18 20 13 14 3 3 4 3 2 1 3 4 7 7 4 4 6 6 3 5 12 2 7 12 9 6 5
16 18 18 19 19 18 18 18 18 18 17 16 14 13 13 3 9 0 4 12 15 12 2 2 2 3 2 4 3 3 10 8 6 5 6 8 6 5 5 8 10 9 9 6 7
15 17 17 19 20 19 19 20 19 18 18 16 13 11 6 4 12 2 9 10 11 9 9 7 7 5 5 4 5 4 4 5 7 8 6 6 4 6 6 6 8 10 8 9 8
16 17 17 18 20 21 22 22 20 19 18 16 12 5 2 12 8 7 7 8 5 7 8 8 7 9 3 5 4 5 5 5 5 6 7 7 3 4 5 6 9 10 9 8 9
16 16 19 21 20 21 20 21 21 21 21 19 10 5 4 19 3 3 5 5 7 7 8 7 6 3 3 3 5 3 4 5 3 5 5 5 2 8 7 8 10 8 7 8 7
15 15 17 19 21 22 22 23 24 21 21 16 9 4 10 8 15 11 4 6 4 6 5 5 8 7 5 2 6 2 4 3 5 5 2 6 10 4 9 12 10 8 7 7 6
14 14 16 19 21 22 23 26 27 19 8 9 6 4 11 6 4 9 10 8 6 3 5 4 3 4 5 5 4 6 4 5 5 8 3 3 7 3 9 9 9 9 7 7 5
15 15 15 18 20 20 24 26 18 6 3 6 4 1 7 7 6 7 6 7 4 5 3 5 3 3 3 4 6 5 5 5 6 4 6 6 10 4 8 8 10 8 7 7 7
16 15 15 17 19 18 13 8 4 3 4 10 7 6 5 6 4 5 6 7 0 2 6 3 4 6 8 7 6 5 4 7 4 4 6 12 8 10 8 4 8 8 8 7 7
17 16 16 16 18 16 2 4 5 4 9 11 16 14 18 5 5 6 9 8 6 7 2 2 8 8 7 4 4 5 7 7 7 4 8 6 12 5 8 10 7 11 8 9 5
14 14 16 16 18 6 4 5 7 6 5 8 8 9 8 11 10 9 11 8 6 9 8 10 12 6 4 3 5 6 5 5 8 5 2 3 7 3 4 5 7 6 6 5 10
13 12 12 15 4 5 5 9 9 3 4 9 7 11 8 10 6 10 10 8 6 17 9 11 6 8 5 6 5 7 8 9 5 3 6 6 6 5 4 10 9 11 9 10 9
13 13 10 3 5 3 6 14 11 2 6 10 8 5 11 12 11 8 8 4 12 8 8 15 8 7 9 11 7 12 9 10 5 5 2 1 4 8 3 6 10 13 12 10 9
14 13 8 4 1 6 12 14 1 3 13 7 6 9 9 9 9 5 7 5 7 7 4 13 6 9 11 9 8 13 1 6 4 3 2 7 6 6 5 9 6 8 10 12 10
16 14 9 2 4 4 9 3 2 11 4 7 8 7 14 9 14 12 9 5 11 7 8 4 6 4 5 4 1 4 6 3 5 4 7 1 3 10 10 11 11 20 15 14 10
16 14 7 8 3 4 5 3 13 9 15 4 5 6 14 10 10 11 13 12 8 8 7 10 11 10 6 9 10 9 11 7 8 5 9 3 5 8 6 8 7 13 15 14 10
14 5 5 6 7 4 0 12 18 7 17 5 2 5 6 12 7 13 16 16 12 13 18 11 12 4 7 6 11 6 4 8 5 2 3 4 7 10 2 6 8 9 13 14 12
7 5 6 8 11 5 3 30 10 7 4 14 10 7 9 8 12 14 14 18 11 11 7 8 6 8 12 5 4 9 5 3 3 4 6 4 3 7 6 4 5 9 11 12 9
7 5 5 16 10 3 14 20 20 5 3 18 19 4 6 8 14 11 11 15 15 12 11 8 7 4 3 7 11 2 2 4 5 5 7 1 8 8 8 8 16 15 17 17 15
6 8 5 16 6 4 19 20 13 21 1 3 2 10 6 5 4 8 16 12 15 9 10 10 8 8 10 2 3 5 10 8 6 4 3 4 9 4 4 9 8 12 17 16 15
3 6 7 12 10 10 19 23 9 11 18 1 4 4 4 8 2 5 4 4 4 11 10 8 5 6 6 3 3 3 4 6 6 4 6 7 8 1 1 5 7 9 12 14 14
3 5 5 7 7 17 14 21 21 11 5 4 3 4 4 2 0 3 2 2 2 4 7 12 7 15 20 13 7 6 6 7 8 5 4 5 6 7 6 3 3 8 10 14 14
5 3 4 9 14 18 5 2 20 5 14 2 3 5 5 2 2 5 2 6 8 3 4 11 16 11 14 17 15 9 12 12 7 8 9 10 9 7 7 3 6 2 9 12 14
3 4 3 4 11 16 13 7 6 19 3 15 11 3 2 8 5 1 4 1 5 5 3 4 6 7 5 10 15 15 13 18 9 2 1 5 8 6 5 6 6 13 15 17 17
2 2 2 2 5 7 13 15 5 4 4 5 5 2 10 14 11 11 12 9 8 6 2 4 5 4 4 5 9 7 14 12 7 7 10 9 12 4 4 8 12 12 15 22 22
Wind_Direction
348 346 351 349 336 328 329 327 324 330 328 322 327 320 320 330 314 231 234 213 192 146 164 116 149 130 165 233 192 138 73 252 243 167 224 194 150 206 98 101 68 23 133 148 132
344 338 344 343 336 328 323 328 327 327 325 319 322 322 323 337 298 250 223 209 209 149 147 168 229 119 244 208 174 113 135 235 208 228 203 179 161 163 109 116 57 71 54 97 99
339 338 338 337 331 325 323 321 319 329 326 322 319 322 323 321 324 253 177 205 179 172 178 158 80 142 261 312 207 196 223 201 267 213 160 166 194 156 125 216 197 175 170 146 115
336 335 335 330 327 320 314 316 324 326 320 311 319 323 323 264 240 341 247 210 172 155 141 222 152 175 246 270 195 255 257 193 193 169 142 170 157 150 178 211 165 165 152 141 137
325 325 328 325 320 317 317 322 319 314 307 310 317 331 326 243 242 325 49 101 121 136 192 195 173 156 223 245 333 213 240 178 146 151 166 132 181 175 201 165 134 136 139 148 145
318 323 322 320 322 323 323 320 316 311 306 307 308 296 146 258 243 260 141 139 157 153 164 168 203 202 239 229 161 229 207 182 167 174 154 131 176 123 233 159 142 144 159 156 149
315 320 319 321 324 322 317 314 312 309 305 299 278 213 242 234 237 16 178 205 161 193 166 199 189 187 168 259 205 168 109 347 251 191 189 128 198 231 182 162 161 160 160 150 157
308 311 316 318 322 323 319 314 305 299 295 279 204 187 246 232 242 256 162 286 199 196 248 189 189 204 161 176 6 164 83 184 257 148 273 123 261 253 169 161 177 167 166 154 165
302 305 314 318 321 324 321 312 302 303 283 158 138 171 260 309 202 231 183 214 187 208 246 257 176 201 76 99 358 358 250 227 296 189 142 167 258 261 169 173 177 177 169 161 153
304 308 313 318 321 326 323 306 297 293 163 201 257 94 273 243 226 171 190 174 161 160 264 195 66 149 68 101 232 245 273 263 259 217 188 201 249 278 188 184 177 174 169 166 158
302 309 312 315 319 330 351 352 340 302 235 194 197 235 311 269 343 203 159 117 179 110 196 172 143 203 212 205 203 221 235 256 245 245 180 224 224 230 196 204 171 172 177 174 178
292 300 306 311 316 317 307 248 128 175 290 250 247 244 266 358 311 281 114 148 129 210 189 35 216 213 219 210 200 235 252 272 283 244 175 254 246 215 186 215 179 170 185 179 185
271 288 301 311 314 324 207 231 355 15 244 270 207 223 226 158 215 245 160 163 163 205 209 217 241 190 172 265 266 257 229 249 235 338 236 125 304 207 221 179 157 187 176 168 180
262 270 288 315 318 326 256 347 330 302 294 274 212 243 190 168 243 216 178 147 206 201 178 216 206 187 185 222 182 267 234 247 248 152 234 139 258 293 230 209 191 177 179 183 189
251 264 278 307 298 299 338 328 318 102 276 250 210 221 171 165 153 232 193 157 192 172 148 221 163 186 219 233 194 248 238 231 228 204 140 309 85 265 118 218 227 199 188 184 190
239 245 252 318 191 268 321 313 113 73 241 265 202 185 154 178 183 198 169 166 176 176 217 200 199 159 211 230 192 245 257 48 44 85 33 234 147 285 224 210 206 190 192 177 184
223 234 212 177 235 337 333 340 173 210 207 221 217 169 191 174 196 189 193 168 189 172 199 174 209 192 150 203 5 114 80 295 340 351 219 262 108 228 250 237 198 186 184 173 176
211 216 220 214 186 25 344 108 224 203 209 232 176 162 191 167 201 191 203 219 232 184 167 186 235 185 200 177 205 203 182 169 211 222 259 187 231 255 230 274 216 192 170 153 168
199 194 214 215 200 109 61 207 215 179 195 214 81 157 209 201 165 181 205 218 201 183 209 191 231 231 176 182 155 220 178 204 128 353 46 253 299 319 24 37 106 132 148 168 177
214 166 222 172 159 130 177 228 215 188 133 204 190 174 177 184 186 190 183 207 208 174 172 210 219 205 236 136 209 163 175 87 359 174 252 277 267 246 271 175 150 158 173 175 164
204 195 230 159 139 170 218 219 215 304 167 193 227 190 209 178 189 203 213 218 192 195 184 146 147 259 140 178 212 205 155 56 123 136 183 191 263 221 245 197 201 187 176 178 175
198 199 162 146 160 203 227 217 237 219 230 221 150 204 184 188 168 204 212 199 192 187 178 194 163 209 211 255 243 175 186 152 164 228 152 157 262 30 275 214 197 201 180 178 177
208 184 167 168 189 216 232 222 245 236 241 160 234 195 182 180 202 203 192 185 185 196 189 164 219 228 298 25 16 179 173 133 114 90 186 152 263 85 116 234 197 188 176 175 168
161 181 157 207 224 216 219 226 220 240 293 289 295 26 84 107 290 255 173 301 19 173 228 176 178 201 224 222 158 188 185 185 139 125 169 229 290 310 325 227 195 182 173 173 176
179 268 198 171 210 225 158 293 216 245 214 151 253 172 93 128 300 216 186 287 283 239 253 167 217 215 229 212 196 189 176 188 162 171 177 224 207 230 274 149 282 261 147 169 173
177 221 326 173 207 210 203 209 222 216 209 230 242 312 182 218 182 334 59 350 261 14 16 322 219 148 206 193 205 207 202 188 187 100 66 140 247 211 148 158 188 192 178 180 188
267 351 247 243 162 165 211 205 165 178 287 240 298 315 243 271 236 236 252 251 241 282 265 220 144 119 226 196 116 254 192 170 171 185 170 192 228 161 287 249 225 219 203 186 188